Saint Martin Island, Sint Maarten

2:32 PM AST on December 07, 2016 (GMT -0400)
Princess Juliana International

Weather History for TNCM - October, 2011

Change the Weather History Date:

Monday, October 24, 2011

  Actual Average Record
Temperature  
Mean Temperature 84 °F -  
Max Temperature 88 °F 84 °F 91 °F (2001)
Min Temperature 81 °F 74 °F 73 °F (2007)
Cooling Degree Days 20    
Growing Degree Days 34 (Base 50)    
Moisture  
Dew Point 74 °F    
Average Humidity 72    
Maximum Humidity 84    
Minimum Humidity 55    
Precipitation  
Precipitation 0.12 in 0.17 in - ()
Sea Level Pressure  
Sea Level Pressure 29.90 in    
Wind  
Wind Speed 11 mph ()    
Max Wind Speed 17 mph    
Max Gust Speed -    
Visibility 7.1 miles    
Events Rain    
Averages and records for this station are not official NWS values.
T = Trace of Precipitation, MM = Missing Value Source: Averaged Metar Reports

Daily Weather History Graph

Daily Weather History Graph

Search for Another Location

Airport or City:

Trip Planner

Search our weather history database for the weather conditions in past years. The results will help you decide how hot, cold, wet, or windy it might be!

Date:

Astronomy

Oct. 24, 2011 Rise Set
Actual Time 6:08 AM AST 5:44 PM AST
Civil Twilight 5:46 AM AST 6:06 PM AST
Nautical Twilight 5:20 AM AST 6:32 PM AST
Astronomical Twilight 4:55 AM AST 6:57 PM AST
Moon 3:39 AM AST (10/24) 3:54 PM AST (10/24)
Length of Visible Light 12h 20m
Length of Day
11h 35m
Waning Crescent, 7% of the Moon is Illuminated
Oct 24
Waning Crescent
Oct 26
New
Nov 2
First Quarter
Nov 10
Full
Nov 18
Last Quarter

Hourly Weather History & Observations

Time (AST) Temp. Heat Index Dew Point Humidity Pressure Visibility Wind Dir Wind Speed Gust Speed Precip Events Conditions
12:00 AM 82.4 °F 89.5 °F 75.2 °F 79% 29.95 in 6.2 mi East 10.4 mph - N/A   Partly Cloudy
1:00 AM 82.4 °F 88.2 °F 73.4 °F 74% 29.92 in 6.2 mi East 11.5 mph - N/A   Partly Cloudy
2:00 AM 82.4 °F 88.2 °F 73.4 °F 74% 29.92 in 6.2 mi East 11.5 mph - N/A   Partly Cloudy
3:00 AM 82.4 °F 88.2 °F 73.4 °F 74% 29.89 in 6.2 mi ENE 11.5 mph - N/A   Scattered Clouds
4:00 AM 82.4 °F 88.2 °F 73.4 °F 74% 29.89 in 6.2 mi East 12.7 mph - N/A   Partly Cloudy
5:00 AM 82.4 °F 88.2 °F 73.4 °F 74% 29.89 in 6.2 mi East 12.7 mph - N/A   Partly Cloudy
6:00 AM 82.4 °F 88.2 °F 73.4 °F 74% 29.89 in 6.2 mi East 13.8 mph - N/A   Partly Cloudy
7:00 AM 82.4 °F 88.2 °F 73.4 °F 74% 29.92 in 6.2 mi East 11.5 mph - N/A   Partly Cloudy
8:00 AM 84 °F - 74 °F 64% 29.94 in 22 mi East 15.0 mph - -   Partly Cloudy
8:00 AM 84.2 °F 90.9 °F 73.4 °F 70% 29.92 in 6.2 mi East 15.0 mph - N/A   Scattered Clouds
9:00 AM 86.0 °F 93.4 °F 73.4 °F 66% 29.95 in 6.2 mi East 16.1 mph - N/A   Scattered Clouds
10:00 AM 86.0 °F 93.4 °F 73.4 °F 66% 29.95 in 6.2 mi East 16.1 mph - N/A   Scattered Clouds
11:00 AM 87 °F - 73 °F 55% 29.95 in 22 mi East 17.3 mph - -   Partly Cloudy
11:00 AM 86.0 °F 93.4 °F 73.4 °F 66% 29.95 in 6.2 mi East 17.3 mph - N/A   Scattered Clouds
12:00 PM 87.8 °F 95.6 °F 73.4 °F 62% 29.92 in 6.2 mi East 13.8 mph - N/A   Scattered Clouds
1:00 PM 87.8 °F 95.6 °F 73.4 °F 62% 29.89 in 6.2 mi East 10.4 mph - N/A   Scattered Clouds
2:00 PM 87 °F - 75 °F 59% 29.88 in 16 mi East 11.5 mph - -   Partly Cloudy
2:00 PM 87.8 °F 97.6 °F 75.2 °F 66% 29.86 in 6.2 mi East 11.5 mph - N/A   Mostly Cloudy
3:00 PM 86.0 °F 93.4 °F 73.4 °F 66% 29.86 in 6.2 mi ENE 16.1 mph - N/A   Mostly Cloudy
4:00 PM 84.2 °F 94.1 °F 77.0 °F 79% 29.86 in 6.2 mi ENE 11.5 mph - N/A   Mostly Cloudy
5:00 PM 83 °F - 76 °F 74% 29.87 in 16 mi East 10.4 mph - - Rain Light Rain Showers
5:00 PM 82.4 °F 90.9 °F 77.0 °F 84% 29.86 in 6.2 mi East 10.4 mph - N/A   Mostly Cloudy
6:00 PM 82.4 °F 89.5 °F 75.2 °F 79% 29.89 in 6.2 mi East 12.7 mph - N/A   Scattered Clouds
7:00 PM 82.4 °F 89.5 °F 75.2 °F 79% 29.89 in 6.2 mi ENE 8.1 mph - N/A   Scattered Clouds
8:00 PM 82 °F - 75 °F 73% 29.91 in 12 mi East 6.9 mph - -   Partly Cloudy
8:00 PM 82.4 °F 89.5 °F 75.2 °F 79% 29.89 in 6.2 mi East 6.9 mph - N/A   Scattered Clouds
9:00 PM 82.4 °F 89.5 °F 75.2 °F 79% 29.92 in 6.2 mi East 11.5 mph - N/A   Scattered Clouds
10:00 PM 82.4 °F 89.5 °F 75.2 °F 79% 29.89 in 6.2 mi East 9.2 mph - N/A   Scattered Clouds
11:00 PM 82.4 °F 89.5 °F 75.2 °F 79% 29.89 in 6.2 mi East 9.2 mph - N/A   Scattered Clouds